Overview Statistics Trail Chart Weather Telemetry Raw packets
 

This is the latest recevied weather packets stored in our database for station/object M0HPP-13. If no packets are shown the sender has not sent any weather packets the latest 10 day(s).

<< 30 31 32 33 34 35 36 >>
Time Temp. Humidity Pressure Rain* Wind** Luminosity Snow
1788167286 15.56° C 89% 1004.7 hPa 0 mm - 167 W/m² -
1788166686 15.56° C 90% 1004.6 hPa 0 mm - 166 W/m² -
1788166086 15.56° C 89% 1004.7 hPa 0 mm - 172 W/m² -
1788165486 15° C 92% 1004.4 hPa 0 mm - 172 W/m² -
1788164886 15° C 92% 1004.4 hPa 0 mm - 143 W/m² -
1788164286 15° C 92% 1004.3 hPa 0 mm - 118 W/m² -
1788163686 15° C 92% 1004.2 hPa 0 mm - 112 W/m² -
1788163086 15° C 93% 1004.3 hPa 0 mm - 102 W/m² -
1788162486 15° C 96% 1004.2 hPa 0 mm - 136 W/m² -
1788161886 14.44° C 97% 1004.2 hPa 0 mm - 136 W/m² -
1788161294 14.44° C 97% 1004.1 hPa 0 mm - 92 W/m² -
1788160686 14.44° C 99% 1004.1 hPa 0 mm - 84 W/m² -
1788160086 14.44° C 98% 1003.9 hPa 0 mm - 79 W/m² -
1788159486 13.89° C 99% 1003.8 hPa 0 mm - 73 W/m² -
1788158886 13.33° C 99% 1003.8 hPa 0 mm - 51 W/m² -
1788158286 13.33° C 98% 1003.7 hPa 0 mm - 47 W/m² -
1788157686 12.22° C 99% 1003.7 hPa 0 mm - 43 W/m² -
1788157086 11.67° C 99% 1003.5 hPa 0 mm - 29 W/m² -
1788156486 11.67° C 99% 1003.4 hPa 0 mm - 20 W/m² -
1788155886 12.22° C 99% 1003.4 hPa 0 mm - 17 W/m² -
1788155286 12.22° C 99% 1003.3 hPa 0 mm - 11 W/m² -
1788154686 12.22° C 99% 1003.4 hPa 0 mm - 3 W/m² -
1788154086 12.22° C 99% 1003.3 hPa 0 mm - 2 W/m² -
1788153486 12.22° C 99% 1003.3 hPa 0 mm - 1 W/m² -
1788152886 11.67° C 99% 1003.2 hPa 0 mm - 0 W/m² -

* Rain latest hour (hover to see other rain measurements)
** Current wind speed in m/s (hover to see current wind gust speed)